Location: Bégole
(43.1574°N, 0.3291°E)
Time: 06:34:09
(UTC+00:00)

Cosmos 1607 - Pass Details

Date: 28 January 2023
Orbit: 921 x 981 km, 65.0° (Epoch: 26 March)

Event Time Altitude Azimuth Distance (km) Brightness Sun altitude
Rises 18:01:14 0° 203° (SSW) 3,547 7.5 -10.4°
Reaches altitude 10° 18:03:45 10° 201° (SSW) 2,609 6.8 -10.9°
Maximum altitude 18:09:46 68° 119° (ESE) 994 3.9 -12.0°
Drops below altitude 10° 18:15:52 10° 38° (NE) 2,647 5.8 -13.0°
Enters shadow 18:16:04 - 38° (NE) 2,719 5.9 -13.1°
